Regional Weather Roundup
Issued by NWS

Home | Current Version | Previous Version | Text Only | Print | Product List | Glossary On
Versions: 1 2 3 4 5 6 7 8 9 10 11 12 13 14 15 16 17 18 19 20 21 22 23 24 25 26 27 28 29 30 31 32 33 34 35 36 37 38 39 40 41 42 43 44 45 46 47 48 49 50
000
ASUS45 KBOU 020007
RWRCO

WEATHER ROUNDUP FOR COLORADO
NATIONAL WEATHER SERVICE DENVER/BOULDER CO
600 PM MDT FRI AUG 01 2014

NOTE: "FAIR" INDICATES FEW OR NO CLOUDS BELOW 12000 FEET WITH NO
SIGNIFICANT WEATHER AND/OR OBSTRUCTIONS TO VISIBILITY.

COZ001>005-013-030-031-020100-
...NORTHWEST COLORADO...

CITY           SKY/WX    TMP DP  RH WIND       PRES   REMARKS
CRAIG          MOSUNNY   75  39  27 SE5       30.19F
HAYDEN         PTSUNNY   70  41  35 SE10      30.24S
MEEKER         PTSUNNY   76  44  32 W6        30.23F
MOUNT WERNER   NOT AVBL
STEAMBOAT SPGS MOSUNNY   70  51  50 SE5       30.26S
WALDEN         CLOUDY    68  41  37 E15G22    30.37S
$$

COZ006>008-011-020100-
...WEST CENTRAL VALLEYS...

CITY           SKY/WX    TMP DP  RH WIND       PRES   REMARKS
GRAND JUNCTION PTSUNNY   79  46  31 E18       30.13F
MONTROSE       PTSUNNY   76  50  40 N18G30    30.23R
EAGLE          PTSUNNY   70  52  52 W5        30.30S
RIFLE          CLOUDY    78  44  29 E14       30.21F
DELTA          PTSUNNY   75  50  41 N21G29    30.20S
NUCLA          TSTM      79  45  29 W15G25    30.22S
$$

COZ017>023-064>068-020100-
...SOUTHWEST COLORADO...

CITY           SKY/WX    TMP DP  RH WIND       PRES   REMARKS
DURANGO        TSTM      59  53  80 N15G25    30.27R
CORTEZ         SUNNY     81  47  30 NE10G18   30.17F
PAGOSA SPRINGS PTSUNNY   65  50  60 CALM      30.34R
TELLURIDE      CLOUDY    63  46  55 SW5       30.42F THUNDER
WOLF CREEK PAS NOT AVBL
$$

COZ009-010-012-014-032>034-037-058>063-020100-
...CENTRAL COLORADO...

CITY           SKY/WX    TMP DP  RH WIND       PRES   REMARKS
ASPEN          LGT RAIN  65  45  48 N14G21    30.36S
BUENA VISTA    PTSUNNY   58  47  66 W5        30.45F
COPPER MTN     CLOUDY    46  41  81 N9G17     30.67R
BERTHOUD PASS  FAIR      37  37 100 E20G25    30.71F
COTTONWOOD PAS CLOUDY    55  45  67 CALM      30.56S
GUNNISON       MOSUNNY   66  45  45 NE12      30.36S
KREMMLING      CLOUDY    66  41  39 E12       30.36R
LEADVILLE      CLOUDY    52  45  77 S12       30.52S
MONARCH PASS   PTSUNNY   43  37  81 E24       30.73S
SALIDA         PTSUNNY   60  52  74 CALM      30.50S
SUNLIGHT       CLOUDY    52  46  82 NE3       30.59S
WILKERSON PASS CLOUDY    43  41  93 N3        30.65S
$$

COZ069>075-020100-
...SAN LUIS VALLEY/SANGRE DE CRISTO MOUNTAINS...

CITY           SKY/WX    TMP DP  RH WIND       PRES   REMARKS
ALAMOSA        CLOUDY    65  51  60 S6        30.35R
LA VETA PASS   LGT RAIN  46  45  93 E14G23    30.53S VSB 1/4
SAGUACHE       PTSUNNY   55  52  88 SW3       30.40S THUNDER
$$

COZ035-036-038>040-020100-
...NORTHERN COLORADO FRONT RANGE...

CITY           SKY/WX    TMP DP  RH WIND       PRES   REMARKS
DENVER INTL AP PTSUNNY   79  43  27 E7        30.25S
DMNS CITY PARK   N/A     76  42  29 S6        30.24F
AURORA         PTSUNNY   75  43  31 S7        30.27S
FRONT RANGE AP NOT AVBL
ERIE MUNI ARPT PTSUNNY   79  38  22 SE5       30.23S
BOULDER MUN AP PTSUNNY   77  41  27 E5        30.24S
CENTENNIAL     PTSUNNY   73  48  41 SW14      30.28S
BROOMFIELD     PTSUNNY   79  41  25 S9        30.27S
FORT COLLINS   MOSUNNY   82  41  23 S9        30.21S
LONGMONT       MOSUNNY   80  42  25 SE5       30.24S
$$

COZ041-046-047-076>085-087-088-020100-
...PIKES PEAK/PALMER DIVIDE AND SOUTHERN FOOTHILLS...

CITY           SKY/WX    TMP DP  RH WIND       PRES   REMARKS
COLO. SPRINGS  CLOUDY    69  52  54 S5        30.33S
A. F. ACADEMY  CLOUDY    67  46  47 SW6       30.34S
ELLICOTT       CLOUDY    71  45  39 S9        30.32R
FALCON         CLOUDY    68  45  43 S8        30.38S
FORT CARSON    CLOUDY    68  54  59 SW6       30.31R
LIMON          MOSUNNY   77  42  28 S13       30.26S
MONUMENT HILL  PTSUNNY   64  46  52 S8        30.37S
TRINIDAD       HVY RAIN  61  58  90 N5        30.31R FOG
$$

COZ042>045-048>051-090-091-020100-
...NORTHEAST COLORADO...

CITY           SKY/WX    TMP DP  RH WIND       PRES   REMARKS
GREELEY ARPT   MOSUNNY   81  50  34 E3        30.21F
AKRON          PTSUNNY   81  45  28 SE12      30.20F
BURLINGTON     PTSUNNY   80  49  33 SE14G21   30.18S
WRAY             N/A     85  49  28 SE10      30.15S
STERLING       PTSUNNY   86  50  28 W3        30.15F
HOLYOKE        SUNNY     86  46  25 SE7       30.15S
FORT MORGAN    PTSUNNY   83  44  24 NE7       30.20S
$$

COZ086-089-092>099-020100-
...SOUTHEAST COLORADO...

CITY           SKY/WX    TMP DP  RH WIND       PRES   REMARKS
PUEBLO         CLOUDY    67  62  84 NW12      30.23F
LA JUNTA       CLOUDY    74  58  57 SW17      30.20R
LAMAR          CLOUDY    81  53  37 SE3       30.14F
SPRINGFIELD      N/A     76  53  44 S5        30.19F
$$


USA.gov is the U.S. government's official web portal to all federal, state and local government web resources and services.